Regional Weather Roundup
Issued by NWS

Home | Current Version | Previous Version | Graphics & Text | Print | Product List | Glossary On
Versions: 1 2 3 4 5 6 7 8 9 10 11 12 13 14 15 16 17 18 19 20 21 22 23 24 25 26 27 28 29 30 31 32 33 34 35 36 37 38 39 40 41 42 43 44 45 46 47 48 49 50
000
ASUS43 KTOP 221859
RWRKS

WEATHER ROUNDUP FOR KANSAS
NATIONAL WEATHER SERVICE GOODLAND KS
200 PM CDT SUN OCT 22 2017

NOTE:  "FAIR" INDICATES FEW OR NO CLOUDS BELOW 12,000 FEET WITH NO
SIGNIFICANT WEATHER AND/OR OBSTRUCTIONS TO VISIBILITY.

KSZ001>006-013>018-027>032-041>047-222000-
NORTHWEST KANSAS

CITY           SKY/WX    TMP DP  RH WIND       PRES   REMARKS
GOODLAND       SUNNY     65  17  15 SW17G26   30.13F
HAYS           SUNNY     68  24  19 SW12      30.14F
HILL CITY      SUNNY     68  22  17 SW14G22   30.12F
RUSSELL        SUNNY     68  25  19 SW10      30.12F
$$

KSZ061>065-074>080-084>089-222000-
SOUTHWEST KANSAS

CITY           SKY/WX    TMP DP  RH WIND       PRES   REMARKS
DODGE CITY     SUNNY     68  16  13 SW13G21   30.18F
ELKHART          N/A     64  24  21 SW13        N/A
GARDEN CITY    SUNNY     67  18  15 SW13      30.17F
GREAT BEND     SUNNY     68  27  21 W12       30.15F
LIBERAL        SUNNY     67  22  18 SW14G23   30.20F
$$

KSZ066>073-081>083-090>101-222000-
SOUTHEAST KANSAS

CITY           SKY/WX    TMP DP  RH WIND       PRES   REMARKS
CHANUTE        SUNNY     67  40  37 N13       30.13F
COFFEYVILLE    SUNNY     67  43  41 NW12      30.13F
HUTCHINSON     SUNNY     68  28  22 W9        30.14F
MEDICINE LODGE   N/A     72  26  18 W8        30.15F
NEWTON         SUNNY     67  36  31 W8        30.15F
PARSONS        SUNNY     67  42  40 NW13G21   30.14F
WICHITA INTL   SUNNY     67  39  35 SW9       30.15F
WICHITA JABRA  SUNNY     66  37  34 W10       30.15F
WICHITA MCCONL SUNNY     66  36  33 W8        30.15F
WINFIELD       SUNNY     66  42  41 NW9       30.18F
$$

KSZ007>012-019>026-033>040-048>060-102>105-222000-
NORTHEAST KANSAS

CITY           SKY/WX    TMP DP  RH WIND       PRES   REMARKS
CONCORDIA      SUNNY     68  28  22 W10       30.11F
EMPORIA        SUNNY     66  34  30 NW12      30.14F
LAWRENCE       CLOUDY    66  40  38 NW10G17   30.11F
MANHATTAN      SUNNY     69  34  27 W6        30.12F
OLATHE IND     CLOUDY    62  44  51 NW12      30.12F
OLATHE EXE     PTSUNNY   61  41  47 N10       30.11F
SALINA         SUNNY     71  27  19 W10       30.14F HAZE
TOPEKA BILLARD SUNNY     68  40  35 W10       30.11F
TOPEKA FORBES  SUNNY     67  38  34 NW9       30.12F
$$




USA.gov is the U.S. government's official web portal to all federal, state and local government web resources and services.